Volver al catálogo

COSMOS 252 DEB

ActivoLEO
NORAD 3554·DEBRIS·🇷🇺 Russia

Lanzado Nov 1, 1968 desde Baikonur Cosmodrome

Loading…

Próximos Pases (próximas 24 horas)

TLE

ActualizadoSource: Space-Track

Época: Sep 14, 2026, 10:06 UTC

1 03554U 68097G   26257.42091546  .00001703  00000-0  43981-3 0  9999
2 03554  62.2691 162.7892 0541656 327.0942  29.7424 13.90688813837928

Sigue COSMOS 252 DEB en tiempo real con AllMySat

Download on the App Store